Simultaneous Nadir Overpasses (SNOs) Predictions

Prediction of SNOs over PacNW region [( 10.00, 139.50) to ( 22.70, 165.60)] between AQUA and NPP Satellites:

Table of predicted SNOs over PacNW region for the next 30.0 days since TLE Epoch: 5/8/2021
Index Date (AQUA) Time (AQUA) AQUA Lat,Lon Date (NPP) Time (NPP) NPP Lat,Lon Distance(km) Time Diff (sec)
1 05/11/2021 15:59:10 22.63, 147.50 05/11/2021 16:01:08 23.29, 144.66 299.63 118
2 05/19/2021 15:09:43 22.64, 159.86 05/19/2021 15:10:31 23.20, 157.30 269.06 48
3 05/22/2021 03:31:34 22.68, 147.53 05/22/2021 03:28:04 27.08, 144.68 567.11 210
4 05/27/2021 15:59:09 22.60, 147.49 05/27/2021 16:01:21 23.27, 144.61 304.05 132
5 06/04/2021 15:09:41 22.62, 159.86 06/04/2021 15:10:44 23.21, 157.26 274.00 63
